Location: Krasnoyarskiy Pitomnik
(51.1333°N, 71.6167°E)
Time: 10:10:19
(UTC+00:00)

CSL-04 Debris - Pass Details

Date: 22 October 2021
Orbit: 827 x 847 km, 98.9° (Epoch: 06 December)

Event Time Altitude Azimuth Distance (km) Brightness Sun altitude
Exits shadow 14:10:38 20° 151° (SSE) 1,834 5.6 -20.1°
Maximum altitude 14:14:27 72° 71° (ENE) 875 4.0 -20.7°
Drops below altitude 10° 14:19:52 10° 348° (NNW) 2,458 6.9 -21.6°
Sets 14:22:15 0° 346° (NNW) 3,399 7.7 -21.9°
